Find Starlink 31389

NORAD ID: 59013 Int'l Des: 2024-036 Owner: SPXS Country: US Constellation: starlink operational
LEOCIRCULAR

实时位置

正在加载3D地球...

关于 Starlink 31389

正在加载描述...

即将过境

Passes for default location (London). Set your location on the main map for personalized predictions.

高度历史

Loading altitude history...

两行轨道根数

1 59013U 24036R 26126.52864965 .00000017 00000-0 12721-4 0 9990
2 59013 53.1600 169.8229 0001320 79.6089 280.5060 15.30190269124180
Epoch: May 6, 2026 • Age: 16 hours

当前状态

高度 477.2 km
速度 7.63 km/s
星下点 35.52°N, 94.63°W
发射日期 Feb 23, 2024
运行时间 2.2 years
类型 internet

技术详情

分类 Payload
质量 730.00 kg
干质量 700.00 kg
总质量 730.00 kg
长度 0.30 m
直径 4.10 m
跨度 29.00 m
形状 Box + pan
制造商 SPXS
平台类型 Starlink V2M
阶段状态 In Orbit
所有者/国家 SPXS/US

Most Searched